Year,Month,Day,Hour,Minute,Value (Times are PST for temperature in C)
2015,06,30,00,00,21.50
2015,06,30,00,01,21.50
2015,06,30,00,02,21.40
2015,06,30,00,03,21.40
2015,06,30,00,04,21.40
2015,06,30,00,05,21.30
2015,06,30,00,06,21.30
2015,06,30,00,07,21.30
2015,06,30,00,08,21.20
2015,06,30,00,09,21.20
2015,06,30,00,10,21.10
2015,06,30,00,11,21.10
2015,06,30,00,12,21.00
2015,06,30,00,13,21.00
2015,06,30,00,14,20.90
2015,06,30,00,15,20.90
2015,06,30,00,16,20.80
2015,06,30,00,17,20.80
2015,06,30,00,18,20.70
2015,06,30,00,19,20.70
2015,06,30,00,20,20.70
2015,06,30,00,21,20.60
2015,06,30,00,22,20.50
2015,06,30,00,23,20.40
2015,06,30,00,24,20.40
2015,06,30,00,25,20.30
2015,06,30,00,26,20.20
2015,06,30,00,27,20.20
2015,06,30,00,28,20.20
2015,06,30,00,29,20.10
2015,06,30,00,30,20.10
2015,06,30,00,31,20.00
2015,06,30,00,32,20.00
2015,06,30,00,33,19.90
2015,06,30,00,34,19.80
2015,06,30,00,35,19.80
2015,06,30,00,36,19.80
2015,06,30,00,37,19.80
2015,06,30,00,38,19.70
2015,06,30,00,39,19.70
2015,06,30,00,40,19.70
2015,06,30,00,41,19.70
2015,06,30,00,42,19.70
2015,06,30,00,43,19.70
2015,06,30,00,44,19.70
2015,06,30,00,45,19.70
2015,06,30,00,46,19.70
2015,06,30,00,47,19.60
2015,06,30,00,48,19.60
2015,06,30,00,49,19.60
2015,06,30,00,50,19.60
2015,06,30,00,51,19.60
2015,06,30,00,52,19.50
2015,06,30,00,53,19.50
2015,06,30,00,54,19.50
2015,06,30,00,55,19.50
2015,06,30,00,56,19.50
2015,06,30,00,57,19.40
2015,06,30,00,58,19.40
2015,06,30,00,59,19.40
2015,06,30,01,00,19.40
2015,06,30,01,01,19.30
2015,06,30,01,02,19.30
2015,06,30,01,03,19.20
2015,06,30,01,04,19.20
2015,06,30,01,05,19.20
2015,06,30,01,06,19.20
2015,06,30,01,07,19.10
2015,06,30,01,08,19.10
2015,06,30,01,09,19.10
2015,06,30,01,10,19.00
2015,06,30,01,11,19.00
2015,06,30,01,12,18.90
2015,06,30,01,13,18.90
2015,06,30,01,14,18.90
2015,06,30,01,15,18.90
2015,06,30,01,16,18.80
2015,06,30,01,17,18.80
2015,06,30,01,18,18.80
2015,06,30,01,19,18.80
2015,06,30,01,20,18.80
2015,06,30,01,21,18.80
2015,06,30,01,22,18.80
2015,06,30,01,23,18.80
2015,06,30,01,24,18.80
2015,06,30,01,25,18.70
2015,06,30,01,26,18.70
2015,06,30,01,27,18.70
2015,06,30,01,28,18.70
2015,06,30,01,29,18.70
2015,06,30,01,30,18.70
2015,06,30,01,31,18.70
2015,06,30,01,32,18.70
2015,06,30,01,33,18.70
2015,06,30,01,34,18.70
2015,06,30,01,35,18.70
2015,06,30,01,36,18.70
2015,06,30,01,37,18.60
2015,06,30,01,38,18.60
2015,06,30,01,39,18.60
2015,06,30,01,40,18.60
2015,06,30,01,41,18.60
2015,06,30,01,42,18.60
2015,06,30,01,43,18.60
2015,06,30,01,44,18.60
2015,06,30,01,45,18.50
2015,06,30,01,46,18.50
2015,06,30,01,47,18.50
2015,06,30,01,48,18.40
2015,06,30,01,49,18.40
2015,06,30,01,50,18.40
2015,06,30,01,51,18.30
2015,06,30,01,52,18.30
2015,06,30,01,53,18.20
2015,06,30,01,54,18.20
2015,06,30,01,55,18.20
2015,06,30,01,56,18.10
2015,06,30,01,57,18.10
2015,06,30,01,58,18.10
2015,06,30,01,59,18.10
2015,06,30,02,00,18.10
2015,06,30,02,01,18.00
2015,06,30,02,02,18.00
2015,06,30,02,03,18.00
2015,06,30,02,04,18.00
2015,06,30,02,05,18.00
2015,06,30,02,06,18.00
2015,06,30,02,07,18.00
2015,06,30,02,08,18.00
2015,06,30,02,09,18.00
2015,06,30,02,10,18.00
2015,06,30,02,11,18.00
2015,06,30,02,12,18.00
2015,06,30,02,13,18.00
2015,06,30,02,14,18.00
2015,06,30,02,15,18.00
2015,06,30,02,16,18.00
2015,06,30,02,17,18.00
2015,06,30,02,18,18.00
2015,06,30,02,19,18.00
2015,06,30,02,20,18.00
2015,06,30,02,21,17.90
2015,06,30,02,22,17.90
2015,06,30,02,23,17.90
2015,06,30,02,24,17.90
2015,06,30,02,25,17.90
2015,06,30,02,26,17.80
2015,06,30,02,27,17.80
2015,06,30,02,28,17.80
2015,06,30,02,29,17.80
2015,06,30,02,30,17.80
2015,06,30,02,31,17.80
2015,06,30,02,32,17.80
2015,06,30,02,33,17.80
2015,06,30,02,34,17.80
2015,06,30,02,35,17.80
2015,06,30,02,36,17.80
2015,06,30,02,37,17.80
2015,06,30,02,38,17.80
2015,06,30,02,39,17.80
2015,06,30,02,40,17.80
2015,06,30,02,41,17.80
2015,06,30,02,42,17.80
2015,06,30,02,43,17.80
2015,06,30,02,44,17.80
2015,06,30,02,45,17.80
2015,06,30,02,46,17.70
2015,06,30,02,47,17.70
2015,06,30,02,48,17.60
2015,06,30,02,49,17.60
2015,06,30,02,50,17.50
2015,06,30,02,51,17.50
2015,06,30,02,52,17.40
2015,06,30,02,53,17.40
2015,06,30,02,54,17.40
2015,06,30,02,55,17.40
2015,06,30,02,56,17.30
2015,06,30,02,57,17.30
2015,06,30,02,58,17.30
2015,06,30,02,59,17.30
2015,06,30,03,00,17.30
2015,06,30,03,01,17.20
2015,06,30,03,02,17.20
2015,06,30,03,03,17.20
2015,06,30,03,04,17.20
2015,06,30,03,05,17.20
2015,06,30,03,06,17.10
2015,06,30,03,07,17.10
2015,06,30,03,08,17.10
2015,06,30,03,09,17.10
2015,06,30,03,10,17.10
2015,06,30,03,11,17.00
2015,06,30,03,12,17.00
2015,06,30,03,13,17.00
2015,06,30,03,14,17.00
2015,06,30,03,15,17.00
2015,06,30,03,16,16.90
2015,06,30,03,17,16.90
2015,06,30,03,18,16.90
2015,06,30,03,19,16.90
2015,06,30,03,20,16.90
2015,06,30,03,21,16.90
2015,06,30,03,22,16.90
2015,06,30,03,23,16.90
2015,06,30,03,24,16.90
2015,06,30,03,25,16.90
2015,06,30,03,26,16.90
2015,06,30,03,27,16.90
2015,06,30,03,28,16.90
2015,06,30,03,29,16.90
2015,06,30,03,30,16.80
2015,06,30,03,31,16.80
2015,06,30,03,32,16.80
2015,06,30,03,33,16.70
2015,06,30,03,34,16.70
2015,06,30,03,35,16.60
2015,06,30,03,36,16.60
2015,06,30,03,37,16.60
2015,06,30,03,38,16.50
2015,06,30,03,39,16.50
2015,06,30,03,40,16.50
2015,06,30,03,41,16.50
2015,06,30,03,42,16.50
2015,06,30,03,43,16.50
2015,06,30,03,44,16.50
2015,06,30,03,45,16.50
2015,06,30,03,46,16.50
2015,06,30,03,47,16.50
2015,06,30,03,48,16.50
2015,06,30,03,49,16.50
2015,06,30,03,50,16.50
2015,06,30,03,51,16.50
2015,06,30,03,52,16.50
2015,06,30,03,53,16.50
2015,06,30,03,54,16.50
2015,06,30,03,55,16.50
2015,06,30,03,56,16.50
2015,06,30,03,57,16.50
2015,06,30,03,58,16.50
2015,06,30,03,59,16.50
2015,06,30,04,00,16.50
2015,06,30,04,01,16.50
2015,06,30,04,02,16.50
2015,06,30,04,03,16.50
2015,06,30,04,04,16.50
2015,06,30,04,05,16.50
2015,06,30,04,06,16.40
2015,06,30,04,07,16.40
2015,06,30,04,08,16.40
2015,06,30,04,09,16.40
2015,06,30,04,10,16.40
2015,06,30,04,11,16.40
2015,06,30,04,12,16.30
2015,06,30,04,13,16.30
2015,06,30,04,14,16.30
2015,06,30,04,15,16.30
2015,06,30,04,16,16.30
2015,06,30,04,17,16.30
2015,06,30,04,18,16.30
2015,06,30,04,19,16.20
2015,06,30,04,20,16.20
2015,06,30,04,21,16.20
2015,06,30,04,22,16.20
2015,06,30,04,23,16.20
2015,06,30,04,24,16.10
2015,06,30,04,25,16.10
2015,06,30,04,26,16.10
2015,06,30,04,27,16.10
2015,06,30,04,28,16.10
2015,06,30,04,29,16.00
2015,06,30,04,30,16.00
2015,06,30,04,31,16.00
2015,06,30,04,32,15.90
2015,06,30,04,33,15.90
2015,06,30,04,34,15.90
2015,06,30,04,35,15.90
2015,06,30,04,36,15.80
2015,06,30,04,37,15.80
2015,06,30,04,38,15.80
2015,06,30,04,39,15.80
2015,06,30,04,40,15.70
2015,06,30,04,41,15.70
2015,06,30,04,42,15.70
2015,06,30,04,43,15.60
2015,06,30,04,44,15.60
2015,06,30,04,45,15.60
2015,06,30,04,46,15.60
2015,06,30,04,47,15.50
2015,06,30,04,48,15.50
2015,06,30,04,49,15.40
2015,06,30,04,50,15.40
2015,06,30,04,51,15.40
2015,06,30,04,52,15.40
2015,06,30,04,53,15.40
2015,06,30,04,54,15.40
2015,06,30,04,55,15.40
2015,06,30,04,56,15.40
2015,06,30,04,57,15.40
2015,06,30,04,58,15.40
2015,06,30,04,59,15.40
2015,06,30,05,00,15.40
2015,06,30,05,01,15.40
2015,06,30,05,02,15.40
2015,06,30,05,03,15.40
2015,06,30,05,04,15.40
2015,06,30,05,05,15.40
2015,06,30,05,06,15.40
2015,06,30,05,07,15.40
2015,06,30,05,08,15.40
2015,06,30,05,09,15.40
2015,06,30,05,10,15.40
2015,06,30,05,11,15.40
2015,06,30,05,12,15.40
2015,06,30,05,13,15.40
2015,06,30,05,14,15.40
2015,06,30,05,15,15.40
2015,06,30,05,16,15.40
2015,06,30,05,17,15.40
2015,06,30,05,18,15.40
2015,06,30,05,19,15.40
2015,06,30,05,20,15.40
2015,06,30,05,21,15.40
2015,06,30,05,22,15.40
2015,06,30,05,23,15.40
2015,06,30,05,24,15.40
2015,06,30,05,25,15.50
2015,06,30,05,26,15.50
2015,06,30,05,27,15.40
2015,06,30,05,28,15.40
2015,06,30,05,29,15.40
2015,06,30,05,30,15.40
2015,06,30,05,31,15.40
2015,06,30,05,32,15.40
2015,06,30,05,33,15.40
2015,06,30,05,34,15.40
2015,06,30,05,35,15.40
2015,06,30,05,36,15.40
2015,06,30,05,37,15.40
2015,06,30,05,38,15.30
2015,06,30,05,39,15.30
2015,06,30,05,40,15.30
2015,06,30,05,41,15.30
2015,06,30,05,42,15.30
2015,06,30,05,43,15.30
2015,06,30,05,44,15.30
2015,06,30,05,45,15.30
2015,06,30,05,46,15.30
2015,06,30,05,47,15.30
2015,06,30,05,48,15.30
2015,06,30,05,49,15.30
2015,06,30,05,50,15.20
2015,06,30,05,51,15.20
2015,06,30,05,52,15.20
2015,06,30,05,53,15.20
2015,06,30,05,54,15.20
2015,06,30,05,55,15.10
2015,06,30,05,56,15.10
2015,06,30,05,57,15.10
2015,06,30,05,58,15.10
2015,06,30,05,59,15.10
2015,06,30,06,00,15.10
2015,06,30,06,01,15.20
2015,06,30,06,02,15.20
2015,06,30,06,03,15.20
2015,06,30,06,04,15.20
2015,06,30,06,05,15.20
2015,06,30,06,06,15.20
2015,06,30,06,07,15.30
2015,06,30,06,08,15.30
2015,06,30,06,09,15.30
2015,06,30,06,10,15.30
2015,06,30,06,11,15.40
2015,06,30,06,12,15.40
2015,06,30,06,13,15.40
2015,06,30,06,14,15.50
2015,06,30,06,15,15.50
2015,06,30,06,16,15.60
2015,06,30,06,17,15.60
2015,06,30,06,18,15.60
2015,06,30,06,19,15.60
2015,06,30,06,20,15.70
2015,06,30,06,21,15.80
2015,06,30,06,22,15.80
2015,06,30,06,23,15.90
2015,06,30,06,24,16.00
2015,06,30,06,25,16.10
2015,06,30,06,26,16.20
2015,06,30,06,27,16.30
2015,06,30,06,28,16.30
2015,06,30,06,29,16.40
2015,06,30,06,30,16.50
2015,06,30,06,31,16.50
2015,06,30,06,32,16.60
2015,06,30,06,33,16.60
2015,06,30,06,34,16.60
2015,06,30,06,35,16.70
2015,06,30,06,36,16.70
2015,06,30,06,37,16.70
2015,06,30,06,38,16.80
2015,06,30,06,39,16.80
2015,06,30,06,40,16.80
2015,06,30,06,41,16.90
2015,06,30,06,42,16.90
2015,06,30,06,43,16.90
2015,06,30,06,44,17.00
2015,06,30,06,45,17.10
2015,06,30,06,46,17.10
2015,06,30,06,47,17.20
2015,06,30,06,48,17.20
2015,06,30,06,49,17.20
2015,06,30,06,50,17.30
2015,06,30,06,51,17.30
2015,06,30,06,52,17.40
2015,06,30,06,53,17.50
2015,06,30,06,54,17.60
2015,06,30,06,55,17.60
2015,06,30,06,56,17.70
2015,06,30,06,57,17.80
2015,06,30,06,58,17.80
2015,06,30,06,59,17.90
2015,06,30,07,00,17.90
2015,06,30,07,01,17.90
2015,06,30,07,02,18.00
2015,06,30,07,03,18.00
2015,06,30,07,04,18.10
2015,06,30,07,05,18.10
2015,06,30,07,06,18.10
2015,06,30,07,07,18.20
2015,06,30,07,08,18.20
2015,06,30,07,09,18.30
2015,06,30,07,10,18.40
2015,06,30,07,11,18.40
2015,06,30,07,12,18.50
2015,06,30,07,13,18.60
2015,06,30,07,14,18.60
2015,06,30,07,15,18.60
2015,06,30,07,16,18.60
2015,06,30,07,17,18.60
2015,06,30,07,18,18.70
2015,06,30,07,19,18.70
2015,06,30,07,20,18.70
2015,06,30,07,21,18.70
2015,06,30,07,22,18.70
2015,06,30,07,23,18.80
2015,06,30,07,24,18.80
2015,06,30,07,25,18.80
2015,06,30,07,26,18.80
2015,06,30,07,27,18.90
2015,06,30,07,28,18.90
2015,06,30,07,29,18.90
2015,06,30,07,30,19.00
2015,06,30,07,31,19.10
2015,06,30,07,32,19.10
2015,06,30,07,33,19.10
2015,06,30,07,34,19.20
2015,06,30,07,35,19.20
2015,06,30,07,36,19.20
2015,06,30,07,37,19.10
2015,06,30,07,38,19.10
2015,06,30,07,39,19.10
2015,06,30,07,40,19.10
2015,06,30,07,41,19.10
2015,06,30,07,42,19.10
2015,06,30,07,43,19.20
2015,06,30,07,44,19.20
2015,06,30,07,45,19.20
2015,06,30,07,46,19.20
2015,06,30,07,47,19.20
2015,06,30,07,48,19.20
2015,06,30,07,49,19.30
2015,06,30,07,50,19.30
2015,06,30,07,51,19.40
2015,06,30,07,52,19.40
2015,06,30,07,53,19.40
2015,06,30,07,54,19.40
2015,06,30,07,55,19.40
2015,06,30,07,56,19.40
2015,06,30,07,57,19.40
2015,06,30,07,58,19.40
2015,06,30,07,59,19.50
2015,06,30,08,00,19.50
2015,06,30,08,01,19.60
2015,06,30,08,02,19.60
2015,06,30,08,03,19.70
2015,06,30,08,04,19.70
2015,06,30,08,05,19.80
2015,06,30,08,06,19.80
2015,06,30,08,07,19.90
2015,06,30,08,08,19.90
2015,06,30,08,09,20.00
2015,06,30,08,10,20.10
2015,06,30,08,11,20.10
2015,06,30,08,12,20.20
2015,06,30,08,13,20.20
2015,06,30,08,14,20.20
2015,06,30,08,15,20.30
2015,06,30,08,16,20.30
2015,06,30,08,17,20.30
2015,06,30,08,18,20.30
2015,06,30,08,19,20.30
2015,06,30,08,20,20.40
2015,06,30,08,21,20.40
2015,06,30,08,22,20.40
2015,06,30,08,23,20.50
2015,06,30,08,24,20.50
2015,06,30,08,25,20.60
2015,06,30,08,26,20.70
2015,06,30,08,27,20.80
2015,06,30,08,28,20.80
2015,06,30,08,29,20.90
2015,06,30,08,30,20.90
2015,06,30,08,31,20.90
2015,06,30,08,32,20.90
2015,06,30,08,33,21.00
2015,06,30,08,34,21.00
2015,06,30,08,35,21.10
2015,06,30,08,36,21.10
2015,06,30,08,37,21.20
2015,06,30,08,38,21.30
2015,06,30,08,39,21.30
2015,06,30,08,40,21.40
2015,06,30,08,41,21.50
2015,06,30,08,42,21.50
2015,06,30,08,43,21.50
2015,06,30,08,44,21.50
2015,06,30,08,45,21.50
2015,06,30,08,46,21.40
2015,06,30,08,47,21.40
2015,06,30,08,48,21.40
2015,06,30,08,49,21.40
2015,06,30,08,50,21.30
2015,06,30,08,51,21.30
2015,06,30,08,52,21.30
2015,06,30,08,53,21.30
2015,06,30,08,54,21.30
2015,06,30,08,55,21.30
2015,06,30,08,56,21.30
2015,06,30,08,57,21.30
2015,06,30,08,58,21.30
2015,06,30,08,59,21.30
2015,06,30,09,00,21.30
2015,06,30,09,01,21.30
2015,06,30,09,02,21.30
2015,06,30,09,03,21.30
2015,06,30,09,04,21.30
2015,06,30,09,05,21.30
2015,06,30,09,06,21.30
2015,06,30,09,07,21.40
2015,06,30,09,08,21.40
2015,06,30,09,09,21.50
2015,06,30,09,10,21.50
2015,06,30,09,11,21.60
2015,06,30,09,12,21.60
2015,06,30,09,13,21.70
2015,06,30,09,14,21.80
2015,06,30,09,15,21.90
2015,06,30,09,16,22.00
2015,06,30,09,17,22.20
2015,06,30,09,18,22.30
2015,06,30,09,19,22.40
2015,06,30,09,20,22.50
2015,06,30,09,21,22.60
2015,06,30,09,22,22.60
2015,06,30,09,23,22.70
2015,06,30,09,24,22.70
2015,06,30,09,25,22.80
2015,06,30,09,26,22.90
2015,06,30,09,27,23.00
2015,06,30,09,28,23.10
2015,06,30,09,29,23.20
2015,06,30,09,30,23.30
2015,06,30,09,31,23.40
2015,06,30,09,32,23.50
2015,06,30,09,33,23.60
2015,06,30,09,34,23.60
2015,06,30,09,35,23.70
2015,06,30,09,36,23.60
2015,06,30,09,37,23.40
2015,06,30,09,38,23.30
2015,06,30,09,39,23.20
2015,06,30,09,40,23.10
2015,06,30,09,41,23.10
2015,06,30,09,42,23.10
2015,06,30,09,43,23.10
2015,06,30,09,44,23.10
2015,06,30,09,45,23.20
2015,06,30,09,46,23.10
2015,06,30,09,47,23.00
2015,06,30,09,48,22.90
2015,06,30,09,49,22.80
2015,06,30,09,50,22.80
2015,06,30,09,51,22.70
2015,06,30,09,52,22.70
2015,06,30,09,53,22.70
2015,06,30,09,54,22.70
2015,06,30,09,55,22.70
2015,06,30,09,56,22.70
2015,06,30,09,57,22.70
2015,06,30,09,58,22.70
2015,06,30,09,59,22.70
2015,06,30,10,00,22.70
2015,06,30,10,01,22.70
2015,06,30,10,02,22.70
2015,06,30,10,03,22.70
2015,06,30,10,04,22.60
2015,06,30,10,05,22.60
2015,06,30,10,06,22.60
2015,06,30,10,07,22.60
2015,06,30,10,08,22.70
2015,06,30,10,09,22.80
2015,06,30,10,10,22.80
2015,06,30,10,11,22.80
2015,06,30,10,12,22.80
2015,06,30,10,13,22.80
2015,06,30,10,14,22.70
2015,06,30,10,15,22.70
2015,06,30,10,16,22.70
2015,06,30,10,17,22.70
2015,06,30,10,18,22.70
2015,06,30,10,19,22.70
2015,06,30,10,20,22.70
2015,06,30,10,21,22.80
2015,06,30,10,22,22.80
2015,06,30,10,23,22.90
2015,06,30,10,24,23.00
2015,06,30,10,25,23.10
2015,06,30,10,26,23.10
2015,06,30,10,27,23.20
2015,06,30,10,28,23.30
2015,06,30,10,29,23.40
2015,06,30,10,30,23.40
2015,06,30,10,31,23.40
2015,06,30,10,32,23.40
2015,06,30,10,33,23.50
2015,06,30,10,34,23.50
2015,06,30,10,35,23.40
2015,06,30,10,36,23.40
2015,06,30,10,37,23.40
2015,06,30,10,38,23.40
2015,06,30,10,39,23.40
2015,06,30,10,40,23.50
2015,06,30,10,41,23.50
2015,06,30,10,42,23.60
2015,06,30,10,43,23.60
2015,06,30,10,44,23.70
2015,06,30,10,45,23.80
2015,06,30,10,46,23.90
2015,06,30,10,47,24.00
2015,06,30,10,48,24.10
2015,06,30,10,49,24.20
2015,06,30,10,50,24.30
2015,06,30,10,51,24.30
2015,06,30,10,52,24.40
2015,06,30,10,53,24.50
2015,06,30,10,54,24.40
2015,06,30,10,55,24.40
2015,06,30,10,56,24.40
2015,06,30,10,57,24.40
2015,06,30,10,58,24.30
2015,06,30,10,59,24.30
2015,06,30,11,00,24.30
2015,06,30,11,01,24.30
2015,06,30,11,02,24.30
2015,06,30,11,03,24.30
2015,06,30,11,04,24.40
2015,06,30,11,05,24.40
2015,06,30,11,06,24.40
2015,06,30,11,07,24.40
2015,06,30,11,08,24.40
2015,06,30,11,09,24.40
2015,06,30,11,10,24.40
2015,06,30,11,11,24.40
2015,06,30,11,12,24.40
2015,06,30,11,13,24.30
2015,06,30,11,14,24.30
2015,06,30,11,15,24.30
2015,06,30,11,16,24.30
2015,06,30,11,17,24.30
2015,06,30,11,18,24.30
2015,06,30,11,19,24.30
2015,06,30,11,20,24.20
2015,06,30,11,21,24.10
2015,06,30,11,22,24.10
2015,06,30,11,23,24.10
2015,06,30,11,24,24.10
2015,06,30,11,25,24.20
2015,06,30,11,26,24.30
2015,06,30,11,27,24.40
2015,06,30,11,28,24.50
2015,06,30,11,29,24.60
2015,06,30,11,30,24.70
2015,06,30,11,31,24.70
2015,06,30,11,32,24.70
2015,06,30,11,33,24.70
2015,06,30,11,34,24.80
2015,06,30,11,35,24.80
2015,06,30,11,36,24.90
2015,06,30,11,37,24.90
2015,06,30,11,38,25.00
2015,06,30,11,39,25.10
2015,06,30,11,40,25.10
2015,06,30,11,41,25.00
2015,06,30,11,42,24.90
2015,06,30,11,43,24.80
2015,06,30,11,44,24.80
2015,06,30,11,45,24.90
2015,06,30,11,46,24.90
2015,06,30,11,47,24.90
2015,06,30,11,48,25.00
2015,06,30,11,49,25.00
2015,06,30,11,50,25.10
2015,06,30,11,51,25.10
2015,06,30,11,52,25.10
2015,06,30,11,53,25.20
2015,06,30,11,54,25.20
2015,06,30,11,55,25.30
2015,06,30,11,56,25.30
2015,06,30,11,57,25.30
2015,06,30,11,58,25.40
2015,06,30,11,59,25.60
2015,06,30,12,00,25.70
2015,06,30,12,01,25.80
2015,06,30,12,02,25.90
2015,06,30,12,03,26.00
2015,06,30,12,04,26.10
2015,06,30,12,05,26.00
2015,06,30,12,06,26.00
2015,06,30,12,07,26.10
2015,06,30,12,08,26.10
2015,06,30,12,09,26.10
2015,06,30,12,10,26.10
2015,06,30,12,11,26.10
2015,06,30,12,12,26.00
2015,06,30,12,13,26.00
2015,06,30,12,14,25.90
2015,06,30,12,15,25.80
2015,06,30,12,16,25.80
2015,06,30,12,17,25.70
2015,06,30,12,18,25.80
2015,06,30,12,19,25.80
2015,06,30,12,20,25.80
2015,06,30,12,21,25.80
2015,06,30,12,22,25.80
2015,06,30,12,23,25.80
2015,06,30,12,24,25.90
2015,06,30,12,25,25.90
2015,06,30,12,26,25.90
2015,06,30,12,27,25.90
2015,06,30,12,28,25.90
2015,06,30,12,29,26.00
2015,06,30,12,30,26.00
2015,06,30,12,31,26.00
2015,06,30,12,32,25.90
2015,06,30,12,33,25.90
2015,06,30,12,34,26.00
2015,06,30,12,35,26.00
2015,06,30,12,36,26.00
2015,06,30,12,37,26.00
2015,06,30,12,38,26.10
2015,06,30,12,39,26.10
2015,06,30,12,40,26.20
2015,06,30,12,41,26.30
2015,06,30,12,42,26.30
2015,06,30,12,43,26.20
2015,06,30,12,44,26.10
2015,06,30,12,45,26.10
2015,06,30,12,46,26.10
2015,06,30,12,47,26.10
2015,06,30,12,48,26.10
2015,06,30,12,49,26.10
2015,06,30,12,50,26.10
2015,06,30,12,51,26.20
2015,06,30,12,52,26.20
2015,06,30,12,53,26.20
2015,06,30,12,54,26.10
2015,06,30,12,55,26.10
2015,06,30,12,56,26.20
2015,06,30,12,57,26.30
2015,06,30,12,58,26.40
2015,06,30,12,59,26.40
2015,06,30,13,00,26.40
2015,06,30,13,01,26.40
2015,06,30,13,02,26.40
2015,06,30,13,03,26.40
2015,06,30,13,04,26.40
2015,06,30,13,05,26.40
2015,06,30,13,06,26.40
2015,06,30,13,07,26.50
2015,06,30,13,08,26.50
2015,06,30,13,09,26.50
2015,06,30,13,10,26.40
2015,06,30,13,11,26.30
2015,06,30,13,12,26.30
2015,06,30,13,13,26.20
2015,06,30,13,14,26.20
2015,06,30,13,15,26.20
2015,06,30,13,16,26.20
2015,06,30,13,17,26.20
2015,06,30,13,18,26.20
2015,06,30,13,19,26.20
2015,06,30,13,20,26.10
2015,06,30,13,21,26.00
2015,06,30,13,22,25.80
2015,06,30,13,23,25.80
2015,06,30,13,24,25.70
2015,06,30,13,25,25.70
2015,06,30,13,26,25.80
2015,06,30,13,27,25.90
2015,06,30,13,28,26.00
2015,06,30,13,29,26.10
2015,06,30,13,30,26.20
2015,06,30,13,31,26.20
2015,06,30,13,32,26.20
2015,06,30,13,33,26.30
2015,06,30,13,34,26.30
2015,06,30,13,35,26.30
2015,06,30,13,36,26.30
2015,06,30,13,37,26.10
2015,06,30,13,38,26.00
2015,06,30,13,39,25.90
2015,06,30,13,40,25.80
2015,06,30,13,41,25.80
2015,06,30,13,42,25.80
2015,06,30,13,43,25.90
2015,06,30,13,44,26.00
2015,06,30,13,45,26.00
2015,06,30,13,46,25.90
2015,06,30,13,47,25.90
2015,06,30,13,48,25.90
2015,06,30,13,49,25.90
2015,06,30,13,50,25.80
2015,06,30,13,51,25.80
2015,06,30,13,52,25.80
2015,06,30,13,53,25.80
2015,06,30,13,54,25.80
2015,06,30,13,55,25.80
2015,06,30,13,56,25.70
2015,06,30,13,57,25.60
2015,06,30,13,58,25.40
2015,06,30,13,59,25.30
2015,06,30,14,00,25.20
2015,06,30,14,01,25.10
2015,06,30,14,02,24.90
2015,06,30,14,03,24.80
2015,06,30,14,04,24.60
2015,06,30,14,05,24.50
2015,06,30,14,06,24.50
2015,06,30,14,07,24.50
2015,06,30,14,08,24.50
2015,06,30,14,09,24.50
2015,06,30,14,10,24.50
2015,06,30,14,11,24.40
2015,06,30,14,12,24.30
2015,06,30,14,13,24.20
2015,06,30,14,14,24.20
2015,06,30,14,15,24.10
2015,06,30,14,16,24.10
2015,06,30,14,17,24.00
2015,06,30,14,18,23.80
2015,06,30,14,19,23.80
2015,06,30,14,20,23.80
2015,06,30,14,21,23.70
2015,06,30,14,22,23.70
2015,06,30,14,23,23.80
2015,06,30,14,24,23.80
2015,06,30,14,25,23.80
2015,06,30,14,26,23.70
2015,06,30,14,27,23.60
2015,06,30,14,28,23.40
2015,06,30,14,29,23.30
2015,06,30,14,30,23.30
2015,06,30,14,31,23.30
2015,06,30,14,32,23.30
2015,06,30,14,33,23.20
2015,06,30,14,34,23.30
2015,06,30,14,35,23.40
2015,06,30,14,36,23.40
2015,06,30,14,37,23.30
2015,06,30,14,38,23.10
2015,06,30,14,39,22.90
2015,06,30,14,40,22.80
2015,06,30,14,41,22.70
2015,06,30,14,42,22.60
2015,06,30,14,43,22.60
2015,06,30,14,44,22.50
2015,06,30,14,45,22.50
2015,06,30,14,46,22.40
2015,06,30,14,47,22.30
2015,06,30,14,48,22.30
2015,06,30,14,49,22.20
2015,06,30,14,50,22.20
2015,06,30,14,51,22.30
2015,06,30,14,52,22.30
2015,06,30,14,53,22.30
2015,06,30,14,54,22.30
2015,06,30,14,55,22.40
2015,06,30,14,56,22.50
2015,06,30,14,57,22.50
2015,06,30,14,58,22.60
2015,06,30,14,59,22.60
2015,06,30,15,00,22.50
2015,06,30,15,01,22.40
2015,06,30,15,02,22.40
2015,06,30,15,03,22.40
2015,06,30,15,04,22.50
2015,06,30,15,05,22.50
2015,06,30,15,06,22.60
2015,06,30,15,07,22.70
2015,06,30,15,08,22.80
2015,06,30,15,09,22.80
2015,06,30,15,10,22.80
2015,06,30,15,11,22.90
2015,06,30,15,12,22.90
2015,06,30,15,13,22.90
2015,06,30,15,14,22.90
2015,06,30,15,15,22.90
2015,06,30,15,16,22.90
2015,06,30,15,17,22.90
2015,06,30,15,18,23.00
2015,06,30,15,19,23.10
2015,06,30,15,20,23.10
2015,06,30,15,21,23.20
2015,06,30,15,22,23.20
2015,06,30,15,23,23.20
2015,06,30,15,24,23.10
2015,06,30,15,25,23.10
2015,06,30,15,26,23.10
2015,06,30,15,27,23.20
2015,06,30,15,28,23.20
2015,06,30,15,29,23.20
2015,06,30,15,30,23.20
2015,06,30,15,31,23.20
2015,06,30,15,32,23.10
2015,06,30,15,33,23.00
2015,06,30,15,34,22.90
2015,06,30,15,35,22.80
2015,06,30,15,36,22.80
2015,06,30,15,37,22.80
2015,06,30,15,38,22.80
2015,06,30,15,39,22.70
2015,06,30,15,40,22.70
2015,06,30,15,41,22.70
2015,06,30,15,42,22.70
2015,06,30,15,43,22.70
2015,06,30,15,44,22.70
2015,06,30,15,45,22.70
2015,06,30,15,46,22.80
2015,06,30,15,47,22.90
2015,06,30,15,48,22.90
2015,06,30,15,49,23.00
2015,06,30,15,50,23.10
2015,06,30,15,51,23.10
2015,06,30,15,52,23.10
2015,06,30,15,53,23.10
2015,06,30,15,54,23.00
2015,06,30,15,55,23.00
2015,06,30,15,56,23.10
2015,06,30,15,57,23.10
2015,06,30,15,58,23.20
2015,06,30,15,59,23.30
2015,06,30,16,00,23.40
2015,06,30,16,01,23.40
2015,06,30,16,02,23.30
2015,06,30,16,03,23.30
2015,06,30,16,04,23.20
2015,06,30,16,05,23.10
2015,06,30,16,06,23.10
2015,06,30,16,07,23.10
2015,06,30,16,08,23.00
2015,06,30,16,09,22.90
2015,06,30,16,10,22.80
2015,06,30,16,11,22.70
2015,06,30,16,12,22.70
2015,06,30,16,13,22.70
2015,06,30,16,14,22.80
2015,06,30,16,15,22.80
2015,06,30,16,16,22.90
2015,06,30,16,17,22.90
2015,06,30,16,18,22.80
2015,06,30,16,19,22.80
2015,06,30,16,20,22.70
2015,06,30,16,21,22.70
2015,06,30,16,22,22.70
2015,06,30,16,23,22.70
2015,06,30,16,24,22.70
2015,06,30,16,25,22.80
2015,06,30,16,26,22.90
2015,06,30,16,27,23.00
2015,06,30,16,28,23.10
2015,06,30,16,29,23.20
2015,06,30,16,30,23.40
2015,06,30,16,31,23.40
2015,06,30,16,32,23.50
2015,06,30,16,33,23.40
2015,06,30,16,34,23.20
2015,06,30,16,35,23.20
2015,06,30,16,36,23.20
2015,06,30,16,37,23.30
2015,06,30,16,38,23.40
2015,06,30,16,39,23.40
2015,06,30,16,40,23.50
2015,06,30,16,41,23.60
2015,06,30,16,42,23.70
2015,06,30,16,43,23.70
2015,06,30,16,44,23.70
2015,06,30,16,45,23.70
2015,06,30,16,46,23.80
2015,06,30,16,47,23.90
2015,06,30,16,48,23.90
2015,06,30,16,49,24.00
2015,06,30,16,50,24.00
2015,06,30,16,51,24.10
2015,06,30,16,52,24.10
2015,06,30,16,53,24.10
2015,06,30,16,54,24.20
2015,06,30,16,55,24.20
2015,06,30,16,56,24.30
2015,06,30,16,57,24.30
2015,06,30,16,58,24.30
2015,06,30,16,59,24.40
2015,06,30,17,00,24.40
2015,06,30,17,01,24.40
2015,06,30,17,02,24.40
2015,06,30,17,03,24.40
2015,06,30,17,04,24.40
2015,06,30,17,05,24.40
2015,06,30,17,06,24.40
2015,06,30,17,07,24.50
2015,06,30,17,08,24.50
2015,06,30,17,09,24.60
2015,06,30,17,10,24.60
2015,06,30,17,11,24.60
2015,06,30,17,12,24.50
2015,06,30,17,13,24.40
2015,06,30,17,14,24.40
2015,06,30,17,15,24.40
2015,06,30,17,16,24.30
2015,06,30,17,17,24.30
2015,06,30,17,18,24.30
2015,06,30,17,19,24.30